| time (UTC) | temp F | wind direction | speed MPH | gust MPH | rain 1hr in | rain 24hr in | rain mn in | humidity % | barometer mb |
| 20260503021534 | 57 | 360 | 0.0 | 0.0 | 0.00 | 0.00 | 0.00 | 84 | 1020.8 |
| 20260503021517 | 57 | 5 | 0.0 | 0.0 | 0.00 | 0.00 | 0.00 | 84 | 1021.4 |
| 20260503021011 | 58 | 5 | 0.0 | 0.0 | 0.00 | 0.00 | 0.00 | 84 | 1021.4 |
| 20260503021004 | 58 | 360 | 0.0 | 0.0 | 0.00 | 0.00 | 0.00 | 84 | 1020.8 |
| 20260503020510 | 58 | 5 | 0.0 | 0.0 | 0.00 | 0.00 | 0.00 | 83 | 1021.4 |
| 20260503020506 | 58 | 360 | 0.0 | 0.0 | 0.00 | 0.00 | 0.00 | 83 | 1020.9 |
| 20260503020033 | 58 | 5 | 0.0 | 0.0 | 0.00 | 0.00 | 0.00 | 82 | 1021.3 |
| 20260503020011 | 58 | 360 | 0.0 | 0.0 | 0.00 | 0.00 | 0.00 | 82 | 1020.8 |
| 20260503015508 | 59 | 360 | 0.0 | 0.0 | 0.00 | 0.00 | 0.00 | 81 | 1020.8 |
| 20260503015506 | 59 | 5 | 0.0 | 0.0 | 0.00 | 0.00 | 0.00 | 81 | 1021.3 |
| 20260503015007 | 59 | 5 | 0.0 | 0.0 | 0.00 | 0.00 | 0.00 | 81 | 1021.4 |
| 20260503015004 | 59 | 360 | 0.0 | 0.0 | 0.00 | 0.00 | 0.00 | 81 | 1020.9 |
| 20260503014509 | 59 | 5 | 0.0 | 0.0 | 0.00 | 0.00 | 0.00 | 82 | 1021.4 |
| 20260503014506 | 59 | 360 | 0.0 | 0.0 | 0.00 | 0.00 | 0.00 | 82 | 1020.8 |
| 20260503014004 | 60 | 5 | 0.0 | 0.0 | 0.00 | 0.00 | 0.00 | 80 | 1021.3 |
| 20260503013505 | 60 | 5 | 0.0 | 0.0 | 0.00 | 0.00 | 0.00 | 80 | 1021.1 |
| 20260503013014 | 60 | 5 | 0.0 | 0.0 | 0.00 | 0.00 | 0.00 | 80 | 1021.0 |
| 20260503013012 | 60 | 360 | 0.0 | 0.0 | 0.00 | 0.00 | 0.00 | 80 | 1020.3 |
| 20260503012506 | 61 | 5 | 0.0 | 0.0 | 0.00 | 0.00 | 0.00 | 79 | 1021.0 |
| 20260503012504 | 61 | 360 | 0.0 | 0.0 | 0.00 | 0.00 | 0.00 | 79 | 1020.3 |
| 20260503012010 | 61 | 5 | 0.0 | 0.0 | 0.00 | 0.00 | 0.00 | 79 | 1021.0 |
| 20260503012006 | 61 | 360 | 0.0 | 0.0 | 0.00 | 0.00 | 0.00 | 79 | 1020.4 |
| 20260503011520 | 62 | 5 | 0.0 | 0.0 | 0.00 | 0.00 | 0.00 | 78 | 1021.0 |
| 20260503011516 | 62 | 360 | 0.0 | 0.0 | 0.00 | 0.00 | 0.00 | 78 | 1020.3 |
| 20260503011007 | 62 | 360 | 0.0 | 0.0 | 0.00 | 0.00 | 0.00 | 76 | 1020.3 |
| 20260503010504 | 63 | 5 | 0.0 | 0.0 | 0.00 | 0.00 | 0.00 | 75 | 1020.9 |
| 20260503010017 | 63 | 5 | 0.0 | 0.0 | 0.00 | 0.00 | 0.00 | 75 | 1020.9 |
| 20260503010012 | 63 | 360 | 0.0 | 0.0 | 0.00 | 0.00 | 0.00 | 75 | 1020.2 |
| 20260503005509 | 64 | 5 | 0.0 | 0.0 | 0.00 | 0.00 | 0.00 | 72 | 1020.9 |
| 20260503005504 | 64 | 360 | 0.0 | 0.0 | 0.00 | 0.00 | 0.00 | 72 | 1020.1 |
| 20260503005003 | 64 | 360 | 0.0 | 1.0 | 0.00 | 0.00 | 0.00 | 72 | 1020.2 |
| 20260503004508 | 65 | 5 | 0.0 | 0.0 | 0.00 | 0.00 | 0.00 | 71 | 1020.9 |
| 20260503004506 | 65 | 360 | 0.0 | 2.0 | 0.00 | 0.00 | 0.00 | 71 | 1020.2 |
| 20260503004005 | 66 | 360 | 0.0 | 2.0 | 0.00 | 0.00 | 0.00 | 70 | 1020.1 |
| 20260503004003 | 66 | 5 | 0.0 | 0.0 | 0.00 | 0.00 | 0.00 | 70 | 1020.9 |
| 20260503003506 | 66 | 5 | 0.0 | 2.0 | 0.00 | 0.00 | 0.00 | 66 | 1020.8 |
| 20260503003026 | 67 | 5 | 0.0 | 2.0 | 0.00 | 0.00 | 0.00 | 64 | 1020.8 |
| 20260503003014 | 67 | 360 | 0.0 | 2.0 | 0.00 | 0.00 | 0.00 | 64 | 1020.1 |
| 20260503002506 | 68 | 5 | 0.0 | 2.0 | 0.00 | 0.00 | 0.00 | 58 | 1020.8 |
| 20260503002007 | 69 | 350 | 0.0 | 2.0 | 0.00 | 0.00 | 0.00 | 58 | 1020.8 |
| 20260503002004 | 69 | 55 | 0.0 | 2.0 | 0.00 | 0.00 | 0.00 | 58 | 1020.1 |
| 20260503001510 | 69 | 35 | 0.0 | 2.0 | 0.00 | 0.00 | 0.00 | 58 | 1020.7 |
| 20260503001004 | 69 | 68 | 0.0 | 3.0 | 0.00 | 0.00 | 0.00 | 58 | 1020.2 |
| 20260503000506 | 70 | 332 | 0.0 | 2.0 | 0.00 | 0.00 | 0.00 | 53 | 1020.7 |
| 20260503000503 | 70 | 317 | 1.0 | 3.0 | 0.00 | 0.00 | 0.00 | 53 | 1020.1 |
| 20260503000028 | 70 | 32 | 0.0 | 2.0 | 0.00 | 0.00 | 0.00 | 55 | 1020.7 |
| 20260503000013 | 70 | 104 | 0.0 | 2.0 | 0.00 | 0.00 | 0.00 | 55 | 1020.1 |
| 20260502235505 | 71 | 331 | 0.0 | 3.0 | 0.00 | 0.00 | 0.00 | 52 | 1020.1 |
| 20260502235005 | 71 | 339 | 0.0 | 3.0 | 0.00 | 0.00 | 0.00 | 52 | 1020.0 |
| 20260502234546 | 71 | 178 | 0.0 | 4.0 | 0.00 | 0.00 | 0.00 | 53 | 1020.6 |
| 20260502234515 | 71 | 67 | 1.0 | 3.0 | 0.00 | 0.00 | 0.00 | 53 | 1019.9 |
| 20260502234006 | 71 | 327 | 1.0 | 3.0 | 0.00 | 0.00 | 0.00 | 48 | 1020.6 |
| 20260502234002 | 71 | 322 | 1.0 | 3.0 | 0.00 | 0.00 | 0.00 | 48 | 1019.8 |
| 20260502233504 | 71 | 5 | 0.0 | 4.0 | 0.00 | 0.00 | 0.00 | 47 | 1020.6 |
| 20260502233502 | 71 | 333 | 1.0 | 4.0 | 0.00 | 0.00 | 0.00 | 47 | 1019.8 |
| 20260502233012 | 72 | 159 | 1.0 | 4.0 | 0.00 | 0.00 | 0.00 | 45 | 1019.8 |
| 20260502233010 | 72 | 28 | 1.0 | 4.0 | 0.00 | 0.00 | 0.00 | 45 | 1020.6 |
| 20260502232505 | 73 | 323 | 2.0 | 4.0 | 0.00 | 0.00 | 0.00 | 46 | 1019.8 |
| 20260502232503 | 73 | 36 | 1.0 | 4.0 | 0.00 | 0.00 | 0.00 | 46 | 1020.5 |
| 20260502232006 | 73 | 312 | 2.0 | 4.0 | 0.00 | 0.00 | 0.00 | 46 | 1019.8 |
| 20260502232004 | 73 | 360 | 1.0 | 4.0 | 0.00 | 0.00 | 0.00 | 46 | 1020.5 |
| 20260502231522 | 73 | 53 | 1.0 | 6.0 | 0.00 | 0.00 | 0.00 | 44 | 1019.8 |
| 20260502231514 | 73 | 24 | 0.0 | 4.0 | 0.00 | 0.00 | 0.00 | 44 | 1020.6 |
| 20260502231008 | 73 | 115 | 1.0 | 4.0 | 0.00 | 0.01 | 0.00 | 44 | 1020.5 |
| 20260502231004 | 73 | 330 | 3.0 | 6.0 | 0.00 | 0.01 | 0.00 | 44 | 1019.7 |
| 20260502230505 | 73 | 352 | 1.0 | 4.0 | 0.00 | 0.01 | 0.00 | 49 | 1019.7 |
| 20260502230503 | 73 | 40 | 1.0 | 4.0 | 0.00 | 0.01 | 0.00 | 49 | 1020.4 |
| 20260502230022 | 74 | 334 | 0.0 | 4.0 | 0.00 | 0.01 | 0.00 | 44 | 1020.4 |
| 20260502230016 | 74 | 323 | 1.0 | 4.0 | 0.00 | 0.01 | 0.00 | 44 | 1019.7 |
| 20260502225508 | 74 | 27 | 2.0 | 4.0 | 0.00 | 0.01 | 0.00 | 45 | 1020.4 |
| 20260502225506 | 74 | 301 | 2.0 | 4.0 | 0.00 | 0.01 | 0.00 | 45 | 1019.7 |
| 20260502225007 | 74 | 120 | 1.0 | 2.0 | 0.00 | 0.02 | 0.00 | 45 | 1020.4 |
| 20260502225004 | 74 | 11 | 2.0 | 4.0 | 0.00 | 0.02 | 0.00 | 45 | 1019.7 |
| 20260502224521 | 74 | 261 | 0.0 | 4.0 | 0.00 | 0.02 | 0.00 | 45 | 1019.6 |
| 20260502224516 | 74 | 257 | 0.0 | 4.0 | 0.00 | 0.02 | 0.00 | 45 | 1020.4 |
| 20260502224008 | 74 | 182 | 1.0 | 4.0 | 0.00 | 0.03 | 0.00 | 44 | 1020.4 |
| 20260502223508 | 74 | 39 | 2.0 | 6.0 | 0.00 | 0.04 | 0.00 | 43 | 1019.7 |
| 20260502223022 | 74 | 169 | 2.0 | 5.0 | 0.00 | 0.05 | 0.00 | 43 | 1020.4 |
| 20260502223015 | 74 | 68 | 2.0 | 6.0 | 0.00 | 0.05 | 0.00 | 43 | 1019.7 |
| 20260502222510 | 74 | 329 | 1.0 | 7.0 | 0.00 | 0.06 | 0.00 | 41 | 1019.8 |
| 20260502222504 | 74 | 70 | 1.0 | 5.0 | 0.00 | 0.06 | 0.00 | 41 | 1020.5 |
| 20260502222006 | 74 | 337 | 1.0 | 7.0 | 0.00 | 0.08 | 0.00 | 43 | 1019.8 |
| 20260502221515 | 74 | 270 | 1.0 | 5.0 | 0.00 | 0.09 | 0.00 | 45 | 1019.8 |
| 20260502221512 | 74 | 277 | 0.0 | 4.0 | 0.00 | 0.09 | 0.00 | 45 | 1020.5 |
| 20260502221008 | 74 | 344 | 2.0 | 6.0 | 0.00 | 0.10 | 0.00 | 47 | 1020.5 |
| 20260502221005 | 74 | 55 | 1.0 | 6.0 | 0.00 | 0.10 | 0.00 | 47 | 1019.9 |
| 20260502220507 | 74 | 22 | 2.0 | 6.0 | 0.00 | 0.11 | 0.00 | 43 | 1019.9 |
| 20260502220024 | 74 | 71 | 0.0 | 4.0 | 0.00 | 0.12 | 0.00 | 44 | 1019.9 |
| 20260502220020 | 74 | 55 | 1.0 | 3.0 | 0.00 | 0.12 | 0.00 | 44 | 1020.6 |
| 20260502215507 | 74 | 333 | 1.0 | 4.0 | 0.00 | 0.13 | 0.00 | 41 | 1020.0 |
| 20260502215503 | 74 | 333 | 2.0 | 4.0 | 0.00 | 0.13 | 0.00 | 41 | 1020.6 |
| 20260502215008 | 74 | 352 | 1.0 | 5.0 | 0.00 | 0.14 | 0.00 | 42 | 1020.6 |
| 20260502214523 | 74 | 121 | 1.0 | 5.0 | 0.00 | 0.16 | 0.00 | 42 | 1020.6 |
| 20260502214520 | 74 | 157 | 1.0 | 8.0 | 0.00 | 0.16 | 0.00 | 42 | 1020.1 |
| 20260502214011 | 75 | 307 | 1.0 | 5.0 | 0.00 | 0.17 | 0.00 | 44 | 1020.7 |
| 20260502214009 | 75 | 316 | 2.0 | 5.0 | 0.00 | 0.17 | 0.00 | 44 | 1020.2 |
| 20260502213507 | 74 | 289 | 1.0 | 5.0 | 0.00 | 0.18 | 0.00 | 43 | 1020.8 |
| 20260502213020 | 74 | 360 | 2.0 | 5.0 | 0.00 | 0.19 | 0.00 | 44 | 1020.8 |
| 20260502213017 | 74 | 74 | 4.0 | 8.0 | 0.00 | 0.19 | 0.00 | 44 | 1020.3 |
| 20260502212509 | 74 | 90 | 2.0 | 7.0 | 0.00 | 0.21 | 0.00 | 43 | 1020.9 |
| 20260502212012 | 74 | 292 | 2.0 | 10.0 | 0.00 | 0.22 | 0.00 | 46 | 1020.4 |
| 20260502212006 | 74 | 296 | 1.0 | 10.0 | 0.00 | 0.22 | 0.00 | 46 | 1021.0 |
| 20260502211519 | 74 | 15 | 3.0 | 10.0 | 0.00 | 0.23 | 0.00 | 45 | 1020.5 |
| 20260502211512 | 74 | 18 | 2.0 | 10.0 | 0.00 | 0.23 | 0.00 | 45 | 1021.0 |
| 20260502211006 | 74 | 262 | 1.0 | 9.0 | 0.00 | 0.25 | 0.00 | 44 | 1020.5 |
| 20260502210511 | 74 | 298 | 2.0 | 9.0 | 0.00 | 0.26 | 0.00 | 46 | 1021.2 |
| 20260502210505 | 74 | 233 | 4.0 | 8.0 | 0.00 | 0.26 | 0.00 | 46 | 1020.7 |
| 20260502210015 | 74 | 334 | 2.0 | 7.0 | 0.00 | 0.27 | 0.00 | 45 | 1020.8 |
| 20260502205508 | 73 | 17 | 1.0 | 7.0 | 0.00 | 0.28 | 0.00 | 47 | 1021.4 |
| 20260502205502 | 73 | 238 | 0.0 | 7.0 | 0.00 | 0.28 | 0.00 | 47 | 1020.8 |
| 20260502205009 | 74 | 152 | 2.0 | 5.0 | 0.00 | 0.28 | 0.00 | 46 | 1021.5 |
| 20260502205003 | 74 | 22 | 1.0 | 4.0 | 0.00 | 0.28 | 0.00 | 47 | 1020.9 |
| 20260502204530 | 73 | 340 | 1.0 | 4.0 | 0.00 | 0.28 | 0.00 | 48 | 1021.5 |
| 20260502204503 | 73 | 202 | 1.0 | 5.0 | 0.00 | 0.28 | 0.00 | 48 | 1020.9 |
| 20260502204006 | 73 | 352 | 1.0 | 4.0 | 0.00 | 0.28 | 0.00 | 46 | 1021.6 |
| 20260502204003 | 73 | 298 | 0.0 | 5.0 | 0.00 | 0.28 | 0.00 | 46 | 1021.0 |
| 20260502203510 | 72 | 9 | 1.0 | 6.0 | 0.00 | 0.28 | 0.00 | 47 | 1021.7 |
| 20260502203503 | 72 | 325 | 2.0 | 6.0 | 0.00 | 0.28 | 0.00 | 47 | 1021.0 |
| 20260502203032 | 73 | 72 | 1.0 | 8.0 | 0.00 | 0.28 | 0.00 | 45 | 1021.8 |
| 20260502203003 | 73 | 327 | 1.0 | 8.0 | 0.00 | 0.28 | 0.00 | 45 | 1021.1 |
| 20260502202503 | 73 | 71 | 2.0 | 8.0 | 0.00 | 0.29 | 0.00 | 44 | 1021.8 |
| 20260502202006 | 73 | 74 | 2.0 | 10.0 | 0.00 | 0.30 | 0.00 | 44 | 1021.3 |
| 20260502202004 | 73 | 342 | 2.0 | 8.0 | 0.00 | 0.30 | 0.00 | 44 | 1021.8 |
| 20260502201506 | 74 | 329 | 3.0 | 8.0 | 0.00 | 0.31 | 0.00 | 53 | 1021.9 |
| 20260502201004 | 74 | 219 | 2.0 | 8.0 | 0.00 | 0.32 | 0.00 | 46 | 1021.8 |
| 20260502200506 | 74 | 340 | 2.0 | 8.0 | 0.00 | 0.33 | 0.00 | 46 | 1021.3 |
| 20260502200503 | 74 | 30 | 3.0 | 8.0 | 0.00 | 0.33 | 0.00 | 46 | 1021.8 |
| 20260502200011 | 72 | 21 | 1.0 | 8.0 | 0.00 | 0.35 | 0.00 | 48 | 1021.7 |
| 20260502200005 | 72 | 235 | 0.0 | 8.0 | 0.00 | 0.35 | 0.00 | 48 | 1021.3 |
| 20260502195504 | 71 | 284 | 2.0 | 8.0 | 0.00 | 0.37 | 0.00 | 55 | 1021.3 |
| 20260502195003 | 72 | 314 | 1.0 | 5.0 | 0.00 | 0.38 | 0.00 | 53 | 1021.9 |
| 20260502194505 | 73 | 53 | 2.0 | 5.0 | 0.00 | 0.39 | 0.00 | 49 | 1022.0 |
| 20260502194503 | 73 | 335 | 2.0 | 5.0 | 0.00 | 0.39 | 0.00 | 49 | 1021.4 |
| 20260502194003 | 74 | 79 | 1.0 | 5.0 | 0.00 | 0.39 | 0.00 | 52 | 1022.0 |
| 20260502193504 | 73 | 91 | 2.0 | 5.0 | 0.00 | 0.39 | 0.00 | 48 | 1022.1 |
| 20260502193004 | 73 | 327 | 1.0 | 6.0 | 0.00 | 0.39 | 0.00 | 52 | 1021.4 |
| 20260502192505 | 72 | 48 | 1.0 | 6.0 | 0.00 | 0.39 | 0.00 | 49 | 1022.1 |
| 20260502192502 | 72 | 232 | 1.0 | 6.0 | 0.00 | 0.39 | 0.00 | 49 | 1021.4 |
| 20260502192004 | 73 | 345 | 3.0 | 9.0 | 0.00 | 0.39 | 0.00 | 54 | 1021.5 |
| 20260502191508 | 73 | 104 | 1.0 | 9.0 | 0.00 | 0.39 | 0.00 | 54 | 1022.2 |
| 20260502191004 | 73 | 347 | 2.0 | 9.0 | 0.00 | 0.40 | 0.00 | 57 | 1022.2 |
| 20260502190504 | 72 | 325 | 2.0 | 7.0 | 0.00 | 0.41 | 0.00 | 52 | 1022.2 |
| 20260502190018 | 73 | 104 | 1.0 | 6.0 | 0.00 | 0.43 | 0.00 | 54 | 1022.3 |
| 20260502190013 | 73 | 69 | 2.0 | 6.0 | 0.00 | 0.43 | 0.00 | 54 | 1021.5 |
| 20260502185507 | 72 | 115 | 1.0 | 6.0 | 0.00 | 0.45 | 0.00 | 53 | 1021.6 |
| 20260502185504 | 72 | 26 | 2.0 | 6.0 | 0.00 | 0.45 | 0.00 | 53 | 1022.3 |
| 20260502185003 | 72 | 284 | 1.0 | 7.0 | 0.00 | 0.46 | 0.00 | 50 | 1022.4 |
| 20260502185000 | 72 | 330 | 2.0 | 6.0 | 0.00 | 0.46 | 0.00 | 50 | 1021.7 |
| 20260502184510 | 72 | 323 | 2.0 | 5.0 | 0.00 | 0.49 | 0.00 | 53 | 1021.7 |
| 20260502184508 | 72 | 59 | 2.0 | 7.0 | 0.00 | 0.49 | 0.00 | 53 | 1022.4 |
| 20260502184004 | 72 | 317 | 1.0 | 7.0 | 0.00 | 0.51 | 0.00 | 60 | 1021.8 |
| 20260502183507 | 70 | 301 | 1.0 | 7.0 | 0.00 | 0.52 | 0.00 | 56 | 1021.9 |
| 20260502183503 | 70 | 280 | 3.0 | 7.0 | 0.00 | 0.52 | 0.00 | 56 | 1022.5 |
| 20260502183011 | 70 | 360 | 0.0 | 9.0 | 0.00 | 0.55 | 0.00 | 57 | 1022.6 |
| 20260502183004 | 70 | 275 | 1.0 | 8.0 | 0.00 | 0.55 | 0.00 | 57 | 1021.9 |
| 20260502182506 | 70 | 352 | 3.0 | 9.0 | 0.00 | 0.56 | 0.00 | 53 | 1022.0 |
| 20260502182004 | 71 | 17 | 2.0 | 9.0 | 0.00 | 0.58 | 0.00 | 57 | 1022.2 |
| 20260502181517 | 70 | 223 | 2.0 | 8.0 | 0.00 | 0.60 | 0.00 | 57 | 1022.2 |
| 20260502181503 | 70 | 257 | 2.0 | 8.0 | 0.00 | 0.60 | 0.00 | 57 | 1022.8 |
| 20260502181003 | 71 | 60 | 4.0 | 8.0 | 0.00 | 0.61 | 0.00 | 56 | 1022.9 |
| 20260502180503 | 71 | 5 | 1.0 | 6.0 | 0.00 | 0.62 | 0.00 | 55 | 1023.0 |
| 20260502170507 | 68 | 327 | 2.0 | 7.0 | 0.00 | 0.63 | 0.00 | 56 | 1023.8 |
| 20260502170502 | 68 | 333 | 2.0 | 10.0 | 0.00 | 0.63 | 0.00 | 56 | 1023.0 |
| 20260502164006 | 67 | 285 | 1.0 | 8.0 | 0.00 | 0.63 | 0.00 | 59 | 1023.1 |
| 20260502164003 | 67 | 352 | 1.0 | 8.0 | 0.00 | 0.63 | 0.00 | 59 | 1023.8 |
| 20260502163504 | 67 | 343 | 2.0 | 8.0 | 0.00 | 0.63 | 0.00 | 58 | 1023.2 |
| 20260502163033 | 67 | 38 | 2.0 | 7.0 | 0.00 | 0.65 | 0.00 | 60 | 1023.9 |
| 20260502163006 | 67 | 322 | 3.0 | 8.0 | 0.00 | 0.65 | 0.00 | 60 | 1023.2 |
| 20260502162507 | 67 | 323 | 4.0 | 8.0 | 0.00 | 0.66 | 0.00 | 62 | 1023.3 |
| 20260502162505 | 67 | 323 | 2.0 | 6.0 | 0.00 | 0.66 | 0.00 | 62 | 1023.9 |
| 20260502162011 | 67 | 333 | 3.0 | 8.0 | 0.00 | 0.67 | 0.00 | 58 | 1023.2 |
| 20260502162006 | 67 | 360 | 2.0 | 6.0 | 0.00 | 0.67 | 0.00 | 58 | 1023.9 |
| 20260502161524 | 67 | 314 | 1.0 | 5.0 | 0.00 | 0.68 | 0.00 | 64 | 1023.2 |
| 20260502161512 | 67 | 42 | 1.0 | 5.0 | 0.00 | 0.68 | 0.00 | 64 | 1023.9 |
| 20260502161003 | 66 | 339 | 1.0 | 5.0 | 0.00 | 0.69 | 0.00 | 60 | 1023.3 |
| 20260502160506 | 66 | 34 | 1.0 | 8.0 | 0.00 | 0.70 | 0.00 | 67 | 1023.8 |
| 20260502160504 | 66 | 327 | 2.0 | 8.0 | 0.00 | 0.70 | 0.00 | 67 | 1023.2 |
| 20260502152010 | 63 | 336 | 2.0 | 5.0 | 0.00 | 0.73 | 0.00 | 75 | 1023.1 |
| 20260502152002 | 63 | 347 | 2.0 | 5.0 | 0.00 | 0.73 | 0.00 | 75 | 1023.6 |
| 20260502151518 | 62 | 71 | 1.0 | 10.0 | 0.00 | 0.73 | 0.00 | 74 | 1023.6 |
| 20260502151512 | 62 | 335 | 2.0 | 10.0 | 0.00 | 0.73 | 0.00 | 74 | 1023.1 |
| 20260502151008 | 62 | 331 | 3.0 | 10.0 | 0.00 | 0.73 | 0.00 | 75 | 1023.1 |
| 20260502151003 | 62 | 18 | 3.0 | 10.0 | 0.00 | 0.73 | 0.00 | 75 | 1023.6 |
| 20260502150509 | 62 | 360 | 1.0 | 5.0 | 0.00 | 0.74 | 0.00 | 79 | 1023.1 |
| 20260502150503 | 62 | 344 | 1.0 | 5.0 | 0.00 | 0.74 | 0.00 | 79 | 1023.5 |
| 20260502130507 | 50 | 360 | 0.0 | 2.0 | 0.00 | 1.04 | 0.00 | 95 | 1022.3 |
| 20260502123507 | 48 | 326 | 0.0 | 0.0 | 0.00 | 1.21 | 0.00 | 95 | 1021.3 |
| 20260502123503 | 48 | 360 | 0.0 | 0.0 | 0.00 | 1.21 | 0.00 | 95 | 1021.8 |
| 20260502123021 | 47 | 360 | 0.0 | 0.0 | 0.00 | 1.23 | 0.00 | 95 | 1021.7 |
| 20260502123011 | 47 | 326 | 0.0 | 0.0 | 0.00 | 1.23 | 0.00 | 95 | 1021.2 |
| 20260502122505 | 47 | 326 | 0.0 | 0.0 | 0.00 | 1.25 | 0.00 | 95 | 1021.1 |
| 20260502122503 | 47 | 360 | 0.0 | 0.0 | 0.00 | 1.25 | 0.00 | 95 | 1021.7 |
| 20260502122006 | 47 | 360 | 0.0 | 0.0 | 0.00 | 1.27 | 0.00 | 95 | 1021.6 |
| 20260502121516 | 47 | 360 | 0.0 | 0.0 | 0.00 | 1.28 | 0.00 | 95 | 1021.6 |
| 20260502121009 | 47 | 326 | 0.0 | 0.0 | 0.00 | 1.31 | 0.00 | 95 | 1020.9 |
| 20260502121007 | 47 | 360 | 0.0 | 0.0 | 0.00 | 1.31 | 0.00 | 95 | 1021.4 |
| 20260502120511 | 47 | 326 | 0.0 | 0.0 | 0.00 | 1.33 | 0.00 | 95 | 1020.7 |
| 20260502120505 | 47 | 360 | 0.0 | 0.0 | 0.00 | 1.33 | 0.00 | 95 | 1021.3 |
| 20260502115510 | 47 | 326 | 0.0 | 0.0 | 0.00 | 1.37 | 0.00 | 95 | 1020.6 |
| 20260502115508 | 47 | 360 | 0.0 | 0.0 | 0.00 | 1.37 | 0.00 | 95 | 1021.1 |
| 20260502115004 | 47 | 360 | 0.0 | 0.0 | 0.00 | 1.39 | 0.00 | 94 | 1021.2 |
| 20260502114510 | 47 | 360 | 0.0 | 0.0 | 0.00 | 1.40 | 0.00 | 94 | 1021.1 |
| 20260502114504 | 47 | 326 | 0.0 | 0.0 | 0.00 | 1.40 | 0.00 | 94 | 1020.5 |
| 20260502114006 | 47 | 360 | 0.0 | 0.0 | 0.00 | 1.40 | 0.00 | 94 | 1021.1 |
| 20260502114004 | 47 | 326 | 0.0 | 0.0 | 0.00 | 1.40 | 0.00 | 94 | 1020.5 |
| 20260502113508 | 47 | 360 | 0.0 | 0.0 | 0.00 | 1.41 | 0.00 | 94 | 1021.0 |
| 20260502113504 | 47 | 326 | 0.0 | 0.0 | 0.00 | 1.41 | 0.00 | 94 | 1020.4 |
| 20260502113010 | 48 | 360 | 0.0 | 0.0 | 0.00 | 1.42 | 0.00 | 94 | 1021.0 |
| 20260502113008 | 48 | 326 | 0.0 | 2.0 | 0.00 | 1.42 | 0.00 | 94 | 1020.3 |
| 20260502112504 | 48 | 326 | 0.0 | 2.0 | 0.00 | 1.43 | 0.00 | 94 | 1020.2 |
| 20260502112007 | 48 | 326 | 0.0 | 2.0 | 0.00 | 1.45 | 0.00 | 94 | 1020.1 |
| 20260502112004 | 48 | 360 | 0.0 | 1.0 | 0.00 | 1.45 | 0.00 | 94 | 1020.9 |
| 20260502111511 | 48 | 326 | 0.0 | 2.0 | 0.00 | 1.47 | 0.00 | 94 | 1019.9 |
| 20260502111506 | 48 | 360 | 0.0 | 1.0 | 0.00 | 1.47 | 0.00 | 94 | 1020.8 |
| 20260502111004 | 48 | 326 | 0.0 | 2.0 | 0.00 | 1.49 | 0.00 | 94 | 1019.9 |
| 20260502110508 | 48 | 326 | 0.0 | 2.0 | 0.00 | 1.50 | 0.00 | 94 | 1019.9 |
| 20260502110022 | 48 | 352 | 0.0 | 0.0 | 0.00 | 1.52 | 0.00 | 94 | 1020.8 |
| 20260502110020 | 48 | 326 | 0.0 | 2.0 | 0.00 | 1.52 | 0.00 | 94 | 1019.9 |
| 20260502105507 | 48 | 352 | 0.0 | 0.0 | 0.00 | 1.54 | 0.00 | 94 | 1020.7 |
| 20260502105504 | 48 | 326 | 0.0 | 2.0 | 0.00 | 1.54 | 0.00 | 94 | 1019.9 |
| 20260502105007 | 48 | 326 | 0.0 | 2.0 | 0.00 | 1.55 | 0.00 | 94 | 1019.8 |
| 20260502105005 | 48 | 352 | 0.0 | 2.0 | 0.00 | 1.55 | 0.00 | 94 | 1020.6 |
| 20260502104524 | 48 | 326 | 0.0 | 2.0 | 0.00 | 1.56 | 0.00 | 94 | 1019.7 |
| 20260502104521 | 48 | 352 | 0.0 | 2.0 | 0.00 | 1.56 | 0.00 | 94 | 1020.5 |
| 20260502104008 | 48 | 326 | 0.0 | 2.0 | 0.00 | 1.56 | 0.00 | 94 | 1019.6 |
| 20260502103507 | 48 | 352 | 0.0 | 2.0 | 0.00 | 1.57 | 0.00 | 94 | 1020.2 |
| 20260502103505 | 48 | 326 | 0.0 | 2.0 | 0.00 | 1.57 | 0.00 | 94 | 1019.5 |
| 20260502103019 | 48 | 352 | 0.0 | 2.0 | 0.00 | 1.57 | 0.00 | 94 | 1020.1 |
| 20260502103011 | 48 | 326 | 0.0 | 2.0 | 0.00 | 1.57 | 0.00 | 94 | 1019.5 |
| 20260502102504 | 49 | 326 | 0.0 | 2.0 | 0.00 | 1.58 | 0.00 | 94 | 1019.4 |
| 20260502102005 | 49 | 326 | 0.0 | 2.0 | 0.00 | 1.60 | 0.00 | 94 | 1019.3 |
| 20260502101512 | 49 | 360 | 0.0 | 2.0 | 0.00 | 1.61 | 0.00 | 94 | 1019.9 |
| 20260502101510 | 49 | 323 | 0.0 | 2.0 | 0.00 | 1.61 | 0.00 | 94 | 1019.2 |
| 20260502101005 | 49 | 323 | 1.0 | 2.0 | 0.00 | 1.61 | 0.00 | 94 | 1019.2 |
| 20260502101003 | 49 | 18 | 0.0 | 2.0 | 0.00 | 1.61 | 0.00 | 94 | 1019.8 |
| 20260502100508 | 49 | 352 | 0.0 | 3.0 | 0.00 | 1.61 | 0.00 | 94 | 1019.9 |
| 20260502100504 | 49 | 325 | 0.0 | 3.0 | 0.00 | 1.61 | 0.00 | 94 | 1019.1 |
| 20260502091508 | 50 | 5 | 1.0 | 3.0 | 0.00 | 1.77 | 0.00 | 94 | 1019.3 |
| 20260502091005 | 50 | 32 | 0.0 | 3.0 | 0.00 | 1.79 | 0.00 | 94 | 1019.2 |
| 20260502090505 | 50 | 333 | 1.0 | 4.0 | 0.00 | 1.81 | 0.00 | 95 | 1018.4 |
| 20260502090503 | 50 | 26 | 1.0 | 3.0 | 0.00 | 1.81 | 0.00 | 95 | 1019.0 |
| 20260502071522 | 49 | 329 | 0.0 | 2.0 | 0.00 | 2.02 | 0.00 | 94 | 1018.0 |
| 20260502071520 | 49 | 345 | 0.0 | 0.0 | 0.00 | 2.02 | 0.00 | 94 | 1018.6 |
| 20260502071010 | 49 | 329 | 0.0 | 2.0 | 0.00 | 2.03 | 0.00 | 94 | 1018.1 |
| 20260502071006 | 49 | 330 | 0.0 | 0.0 | 0.00 | 2.03 | 0.00 | 94 | 1018.7 |
| 20260502070507 | 49 | 329 | 0.0 | 2.0 | 0.00 | 2.04 | 0.00 | 94 | 1018.2 |
| 20260502070505 | 49 | 360 | 0.0 | 0.0 | 0.00 | 2.04 | 0.00 | 94 | 1018.7 |
| 20260502070020 | 49 | 360 | 0.0 | 1.0 | 0.00 | 2.06 | 0.00 | 94 | 1018.8 |
| 20260502070018 | 49 | 329 | 0.0 | 2.0 | 0.00 | 2.06 | 0.00 | 94 | 1018.3 |
| 20260502065511 | 50 | 360 | 0.0 | 2.0 | 0.00 | 2.06 | 0.00 | 94 | 1018.8 |
| 20260502065509 | 50 | 329 | 0.0 | 2.0 | 0.00 | 2.06 | 0.00 | 94 | 1018.3 |
| 20260502065010 | 50 | 329 | 0.0 | 2.0 | 0.00 | 2.06 | 0.00 | 94 | 1018.4 |
| 20260502065006 | 50 | 360 | 0.0 | 1.0 | 0.00 | 2.06 | 0.00 | 94 | 1018.8 |
| 20260502064514 | 50 | 329 | 0.0 | 2.0 | 0.00 | 2.06 | 0.00 | 94 | 1018.4 |
| 20260502064007 | 50 | 329 | 0.0 | 2.0 | 0.00 | 2.06 | 0.00 | 94 | 1018.4 |
| 20260502064004 | 50 | 347 | 0.0 | 2.0 | 0.00 | 2.06 | 0.00 | 94 | 1019.0 |
| 20260502063507 | 50 | 347 | 0.0 | 2.0 | 0.00 | 2.06 | 0.00 | 94 | 1019.2 |
| 20260502063505 | 50 | 329 | 0.0 | 2.0 | 0.00 | 2.06 | 0.00 | 94 | 1018.6 |
| 20260502063015 | 50 | 340 | 0.0 | 2.0 | 0.00 | 2.06 | 0.00 | 94 | 1019.2 |
| 20260502062510 | 50 | 313 | 0.0 | 2.0 | 0.00 | 2.06 | 0.00 | 94 | 1019.2 |
| 20260502062012 | 50 | 334 | 0.0 | 0.0 | 0.00 | 2.06 | 0.00 | 94 | 1019.1 |
| 20260502062007 | 50 | 329 | 0.0 | 2.0 | 0.00 | 2.06 | 0.00 | 94 | 1018.5 |
| 20260502061525 | 50 | 329 | 0.0 | 2.0 | 0.00 | 2.06 | 0.00 | 94 | 1018.3 |
| 20260502061523 | 50 | 334 | 0.0 | 2.0 | 0.00 | 2.06 | 0.00 | 94 | 1019.0 |
| 20260502061008 | 50 | 329 | 0.0 | 2.0 | 0.00 | 2.06 | 0.00 | 94 | 1018.3 |
| 20260502061006 | 50 | 334 | 0.0 | 2.0 | 0.00 | 2.06 | 0.00 | 94 | 1018.9 |
| 20260502060511 | 50 | 24 | 0.0 | 3.0 | 0.00 | 2.06 | 0.00 | 94 | 1019.0 |
| 20260502060509 | 50 | 329 | 0.0 | 3.0 | 0.00 | 2.06 | 0.00 | 94 | 1018.4 |
| 20260502060027 | 51 | 329 | 0.0 | 3.0 | 0.00 | 2.06 | 0.00 | 94 | 1018.4 |
| 20260502060024 | 51 | 30 | 0.0 | 3.0 | 0.00 | 2.06 | 0.00 | 94 | 1019.0 |
| 20260502055507 | 50 | 330 | 1.0 | 3.0 | 0.00 | 2.06 | 0.00 | 93 | 1018.5 |
| 20260502055006 | 51 | 5 | 0.0 | 3.0 | 0.00 | 2.06 | 0.00 | 93 | 1019.1 |
| 20260502054529 | 51 | 326 | 1.0 | 3.0 | 0.00 | 2.06 | 0.00 | 93 | 1018.5 |
| 20260502054524 | 51 | 19 | 0.0 | 3.0 | 0.00 | 2.06 | 0.00 | 93 | 1019.1 |
| 20260502054009 | 51 | 326 | 1.0 | 3.0 | 0.00 | 2.06 | 0.00 | 93 | 1018.4 |
| 20260502054003 | 51 | 24 | 0.0 | 2.0 | 0.00 | 2.06 | 0.00 | 93 | 1019.1 |
| 20260502053506 | 51 | 323 | 1.0 | 2.0 | 0.00 | 2.06 | 0.00 | 93 | 1018.4 |
| 20260502053018 | 51 | 323 | 0.0 | 4.0 | 0.00 | 2.06 | 0.00 | 93 | 1018.5 |
| 20260502053016 | 51 | 22 | 0.0 | 2.0 | 0.00 | 2.06 | 0.00 | 93 | 1019.1 |
| 20260502052511 | 51 | 9 | 0.0 | 2.0 | 0.00 | 2.06 | 0.00 | 92 | 1019.1 |
| 20260502052506 | 51 | 325 | 1.0 | 4.0 | 0.00 | 2.06 | 0.00 | 92 | 1018.4 |
| 20260502052008 | 51 | 9 | 0.0 | 3.0 | 0.00 | 2.06 | 0.00 | 92 | 1019.1 |
| 20260502051527 | 51 | 360 | 0.0 | 3.0 | 0.00 | 2.06 | 0.00 | 92 | 1019.1 |
| 20260502051522 | 51 | 330 | 1.0 | 3.0 | 0.00 | 2.06 | 0.00 | 92 | 1018.5 |
| 20260502051007 | 51 | 321 | 0.0 | 3.0 | 0.00 | 2.06 | 0.00 | 92 | 1018.4 |
| 20260502050508 | 51 | 321 | 1.0 | 4.0 | 0.00 | 2.06 | 0.00 | 91 | 1018.4 |
| 20260502050506 | 51 | 10 | 1.0 | 3.0 | 0.00 | 2.06 | 0.00 | 91 | 1019.1 |
| 20260502050018 | 51 | 18 | 1.0 | 4.0 | 0.00 | 2.06 | 0.00 | 91 | 1019.1 |
| 20260502050015 | 51 | 315 | 1.0 | 4.0 | 0.00 | 2.06 | 0.00 | 91 | 1018.3 |
| 20260502045507 | 51 | 346 | 0.0 | 4.0 | 0.00 | 2.07 | 2.06 | 91 | 1019.1 |
| 20260502045011 | 51 | 329 | 1.0 | 3.0 | 0.00 | 2.07 | 2.06 | 91 | 1018.3 |
| 20260502045003 | 51 | 113 | 0.0 | 2.0 | 0.00 | 2.07 | 2.06 | 91 | 1019.0 |
| 20260502044527 | 52 | 329 | 1.0 | 4.0 | 0.00 | 2.07 | 2.06 | 91 | 1018.2 |
| 20260502044510 | 52 | 64 | 0.0 | 4.0 | 0.00 | 2.07 | 2.06 | 91 | 1018.9 |
| 20260502044008 | 52 | 333 | 1.0 | 5.0 | 0.00 | 2.08 | 2.06 | 91 | 1018.3 |
| 20260502044004 | 52 | 347 | 1.0 | 4.0 | 0.00 | 2.08 | 2.06 | 91 | 1018.9 |
| 20260502043511 | 51 | 317 | 1.0 | 8.0 | 0.00 | 2.08 | 2.06 | 90 | 1018.2 |
| 20260502043503 | 51 | 47 | 2.0 | 8.0 | 0.00 | 2.08 | 2.06 | 90 | 1018.9 |
| 20260502043028 | 51 | 329 | 1.0 | 8.0 | 0.00 | 2.08 | 2.06 | 91 | 1018.3 |
| 20260502043008 | 51 | 349 | 1.0 | 8.0 | 0.00 | 2.08 | 2.06 | 91 | 1018.9 |
| 20260502042506 | 51 | 331 | 2.0 | 5.0 | 0.00 | 2.08 | 2.06 | 91 | 1018.2 |
| 20260502042010 | 51 | 338 | 0.0 | 9.0 | 0.00 | 2.08 | 2.06 | 90 | 1018.9 |
| 20260502041520 | 51 | 343 | 2.0 | 6.0 | 0.00 | 2.08 | 2.06 | 90 | 1018.3 |
| 20260502041508 | 51 | 32 | 2.0 | 7.0 | 0.00 | 2.08 | 2.06 | 90 | 1019.0 |
| 20260502041006 | 51 | 40 | 1.0 | 5.0 | 0.00 | 2.08 | 2.06 | 90 | 1018.8 |
| 20260502040509 | 51 | 321 | 1.0 | 10.0 | 0.00 | 2.08 | 2.06 | 90 | 1018.0 |
| 20260502040507 | 51 | 352 | 1.0 | 8.0 | 0.00 | 2.08 | 2.06 | 90 | 1018.7 |
| 20260502040026 | 52 | 340 | 2.0 | 9.0 | 0.00 | 2.08 | 2.06 | 90 | 1018.0 |
| 20260502040024 | 52 | 5 | 2.0 | 9.0 | 0.00 | 2.08 | 2.06 | 90 | 1018.7 |
| 20260502035509 | 52 | 324 | 2.0 | 9.0 | 0.00 | 2.08 | 2.06 | 90 | 1018.1 |
| 20260502035505 | 52 | 103 | 2.0 | 9.0 | 0.00 | 2.08 | 2.06 | 90 | 1018.7 |
| 20260502035007 | 52 | 290 | 1.0 | 10.0 | 0.00 | 2.08 | 2.06 | 91 | 1018.8 |
| 20260502034523 | 52 | 336 | 2.0 | 10.0 | 0.00 | 2.08 | 2.06 | 90 | 1018.3 |
| 20260502034507 | 52 | 19 | 1.0 | 10.0 | 0.00 | 2.08 | 2.06 | 90 | 1018.9 |
| 20260502034010 | 52 | 335 | 3.0 | 8.0 | 0.00 | 2.08 | 2.06 | 90 | 1018.3 |
| 20260502034003 | 52 | 36 | 2.0 | 8.0 | 0.00 | 2.08 | 2.06 | 90 | 1018.9 |
| 20260502033510 | 52 | 327 | 4.0 | 10.0 | 0.00 | 2.08 | 2.06 | 90 | 1018.1 |
| 20260502033502 | 52 | 321 | 2.0 | 10.0 | 0.00 | 2.08 | 2.06 | 90 | 1018.8 |
| 20260502033019 | 53 | 317 | 4.0 | 10.0 | 0.00 | 2.08 | 2.06 | 91 | 1018.1 |
| 20260502033009 | 53 | 351 | 2.0 | 10.0 | 0.00 | 2.08 | 2.06 | 91 | 1018.7 |
| 20260502032513 | 53 | 315 | 4.0 | 9.0 | 0.00 | 2.08 | 2.06 | 91 | 1018.0 |
| 20260502032503 | 53 | 310 | 2.0 | 9.0 | 0.00 | 2.08 | 2.06 | 91 | 1018.6 |
| 20260502032011 | 53 | 340 | 4.0 | 8.0 | 0.00 | 2.08 | 2.06 | 92 | 1017.9 |
| 20260502032006 | 53 | 13 | 2.0 | 8.0 | 0.00 | 2.08 | 2.06 | 92 | 1018.4 |
| 20260502031530 | 53 | 325 | 3.0 | 9.0 | 0.00 | 2.08 | 2.06 | 92 | 1017.8 |
| 20260502031516 | 53 | 351 | 2.0 | 9.0 | 0.00 | 2.08 | 2.06 | 92 | 1018.3 |
| 20260502031007 | 53 | 302 | 1.0 | 11.0 | 0.00 | 2.09 | 2.06 | 92 | 1018.2 |
| 20260502030509 | 53 | 335 | 4.0 | 11.0 | 0.00 | 2.09 | 2.06 | 93 | 1017.6 |
| 20260502030507 | 53 | 329 | 4.0 | 11.0 | 0.00 | 2.09 | 2.06 | 93 | 1018.2 |
| 20260502030020 | 53 | 319 | 1.0 | 5.0 | 0.00 | 2.10 | 2.06 | 93 | 1017.5 |
| 20260502030012 | 53 | 81 | 0.0 | 4.0 | 0.00 | 2.10 | 2.06 | 93 | 1018.1 |
| 20260502025515 | 54 | 9 | 1.0 | 4.0 | 0.00 | 2.11 | 2.06 | 93 | 1018.0 |
| 20260502025505 | 54 | 316 | 1.0 | 6.0 | 0.00 | 2.11 | 2.06 | 93 | 1017.4 |
| 20260502025007 | 54 | 40 | 1.0 | 9.0 | 0.00 | 2.18 | 2.06 | 93 | 1018.1 |
| 20260502025002 | 54 | 325 | 2.0 | 9.0 | 0.00 | 2.18 | 2.06 | 93 | 1017.4 |
| 20260502024517 | 54 | 352 | 2.0 | 9.0 | 0.00 | 2.21 | 2.06 | 93 | 1017.9 |
| 20260502024502 | 54 | 322 | 2.0 | 9.0 | 0.00 | 2.21 | 2.06 | 93 | 1017.3 |
| 20260502024011 | 54 | 13 | 2.0 | 6.0 | 0.00 | 2.21 | 2.06 | 93 | 1017.8 |
| 20260502024005 | 54 | 333 | 2.0 | 10.0 | 0.00 | 2.21 | 2.06 | 93 | 1017.3 |
| 20260502023508 | 54 | 46 | 0.0 | 9.0 | 0.00 | 2.21 | 2.06 | 93 | 1017.7 |
| 20260502023504 | 54 | 332 | 2.0 | 10.0 | 0.00 | 2.21 | 2.06 | 93 | 1017.3 |
| 20260502023011 | 54 | 360 | 2.0 | 9.0 | 0.00 | 2.21 | 2.06 | 93 | 1017.8 |
| 20260502023008 | 54 | 323 | 3.0 | 10.0 | 0.00 | 2.21 | 2.06 | 93 | 1017.3 |
| 20260502022505 | 54 | 325 | 4.0 | 10.0 | 0.00 | 2.21 | 2.06 | 93 | 1017.2 |
| 20260502022502 | 54 | 90 | 3.0 | 9.0 | 0.00 | 2.21 | 2.06 | 93 | 1017.6 |
| 20260502022005 | 54 | 5 | 3.0 | 8.0 | 0.00 | 2.21 | 2.06 | 93 | 1017.6 |